Date String (YYYY-MM-DD hh:mm:ss) UTC,Instrument flags,absolute air pressure of the measurement (hPa),sample flow rate (lpm),inlet stack bypass flow (lpm),air temperature of the measurement (°C),ambient temperature measured by the external sensor (°C),aerosol sample conditioner tube jacket temperature (°C),OPC LED temperature (°C),internal box temperature (°C),relative humidity of the measurement (%),span deviation,mass concentration of particles derived from Lorenz-Mie calculation of OPC scattering (μg/m³),mass concentration of particles derived from Lorenz-Mie calculation of OPC scattering (μg/m³),mass concentration of particles derived from Lorenz-Mie calculation of OPC scattering (μg/m³)
DateTimeUTC,F1_M11,P_M11,Q1_M11,Q2_M11,T1_M11,T2_M11,T3_M11,T4_M11,T5_M11,U1_M11,ZSPAN_M11,X0_M11,X2_M11,X1_M11
2023-06-30 00:00:00,SystemResetWarning,0829.5,5.00,000.00,030.4,027.9,000.0,038.9,031.4,33.5,0000.0,0018.12,0007.64,0005.93
2023-06-30 00:01:00,SystemResetWarning,0829.6,5.00,000.00,030.4,026.5,000.0,038.8,031.2,33.5,0000.0,0018.40,0007.60,0005.89
2023-06-30 00:02:00,SystemResetWarning,0829.6,5.00,000.00,030.3,025.7,000.0,038.6,031.0,34.2,0000.0,0018.17,0007.57,0005.85
2023-06-30 00:03:00,SystemResetWarning,0829.7,5.00,000.00,030.2,025.7,000.0,038.6,030.7,33.9,0000.0,0017.15,0007.56,0005.83
2023-06-30 00:04:00,SystemResetWarning,0829.7,5.01,000.00,030.0,026.1,000.0,038.6,030.7,33.5,0000.0,0016.34,0007.54,0005.80
2023-06-30 00:05:00,SystemResetWarning,0829.7,4.99,000.00,030.0,026.4,000.0,038.6,030.8,33.9,0000.0,0016.27,0007.52,0005.76
2023-06-30 00:06:00,SystemResetWarning,0829.8,5.00,000.00,030.0,026.8,000.0,038.6,030.9,34.1,0000.0,0016.23,0007.48,0005.73
2023-06-30 00:07:00,SystemResetWarning,0829.9,4.99,000.00,030.0,027.1,000.0,038.6,031.0,33.6,0000.0,0015.92,0007.39,0005.70
2023-06-30 00:08:00,SystemResetWarning,0830.0,4.99,000.00,029.9,027.4,000.0,038.6,031.0,32.7,0000.0,0015.23,0007.32,0005.65
2023-06-30 00:09:00,SystemResetWarning,0830.0,5.01,000.00,029.9,027.6,000.0,038.6,031.1,32.7,0000.0,0015.36,0007.26,0005.60
2023-06-30 00:10:00,SystemResetWarning,0830.0,5.00,000.00,030.0,027.8,000.0,038.6,031.1,31.4,0000.0,0015.26,0007.27,0005.58
2023-06-30 00:11:00,SystemResetWarning,0829.9,5.00,000.00,030.0,027.9,000.0,038.5,031.2,29.5,0000.0,0015.64,0007.22,0005.53
2023-06-30 00:12:00,SystemResetWarning,0829.9,4.99,000.00,030.0,028.1,000.0,038.5,031.2,32.0,0000.0,0015.09,0007.12,0005.46
2023-06-30 00:13:00,SystemResetWarning,0829.9,4.99,000.00,030.0,027.6,000.0,038.5,031.2,31.7,0000.4,0014.97,0007.05,0005.43
2023-06-30 00:14:00,SystemResetWarning,0829.8,5.00,000.00,030.0,026.1,000.0,038.3,031.1,30.7,0000.4,0014.82,0006.97,0005.38
2023-06-30 00:15:00,SystemResetWarning,0829.8,5.00,000.00,029.9,025.5,000.0,038.2,030.9,31.1,0000.0,0014.70,0006.90,0005.34
2023-06-30 00:16:00,SystemResetWarning,0829.8,5.02,000.00,029.8,025.7,000.0,038.2,030.7,30.8,0000.0,0014.63,0006.81,0005.29
2023-06-30 00:17:00,SystemResetWarning,0829.8,5.00,000.00,029.7,026.0,000.0,038.3,030.7,30.7,0000.0,0014.26,0006.68,0005.26
2023-06-30 00:18:00,SystemResetWarning,0829.8,5.00,000.00,029.6,026.4,000.0,038.3,030.7,30.9,0000.0,0014.29,0006.68,0005.20
2023-06-30 00:19:00,SystemResetWarning,0829.8,5.00,000.00,029.6,026.7,000.0,038.2,030.8,32.1,0000.0,0014.55,0006.68,0005.17
2023-06-30 00:20:00,SystemResetWarning,0829.8,4.99,000.00,029.6,027.0,000.0,038.2,030.9,32.8,0000.0,0014.50,0006.72,0005.17
2023-06-30 00:21:00,SystemResetWarning,0829.8,4.99,000.00,029.6,027.3,000.0,038.2,030.9,32.5,0000.0,0014.43,0006.66,0005.16
2023-06-30 00:22:00,SystemResetWarning,0829.8,5.00,000.00,029.6,027.5,000.0,038.2,031.0,32.5,0000.0,0014.06,0006.67,0005.19
2023-06-30 00:23:00,SystemResetWarning,0829.8,5.02,000.00,029.7,027.7,000.0,038.2,031.0,32.2,0000.0,0013.97,0006.73,0005.22
2023-06-30 00:24:00,SystemResetWarning,0829.8,5.00,000.00,029.7,027.9,000.0,038.2,031.1,31.8,0000.2,0013.84,0006.70,0005.22
2023-06-30 00:25:00,SystemResetWarning,0829.7,4.99,000.00,029.7,028.0,000.0,038.2,031.1,31.4,-000.1,0014.01,0006.77,0005.21
2023-06-30 00:26:00,SystemResetWarning,0829.7,5.00,000.00,029.7,028.1,000.0,038.2,031.1,30.7,-000.3,0014.11,0006.75,0005.19
2023-06-30 00:27:00,SystemResetWarning,0829.7,5.01,000.00,029.7,028.1,000.0,038.2,031.2,30.0,0000.0,0014.41,0006.68,0005.15
2023-06-30 00:28:00,SystemResetWarning,0829.7,5.00,000.00,029.7,026.7,000.0,038.1,031.1,30.4,-000.0,0015.68,0006.67,0005.11
2023-06-30 00:29:00,SystemResetWarning,0829.7,5.01,000.00,029.7,025.6,000.0,038.0,030.9,30.0,-000.2,0015.74,0006.66,0005.10
2023-06-30 00:30:00,SystemResetWarning,0829.7,5.01,000.00,029.6,025.5,000.0,038.0,030.6,30.4,-000.4,0015.28,0006.57,0005.07
2023-06-30 00:31:00,SystemResetWarning,0829.7,5.01,000.00,029.5,025.8,000.0,038.0,030.5,30.8,-000.9,0014.86,0006.47,0005.03
2023-06-30 00:32:00,SystemResetWarning,0829.7,4.99,000.00,029.4,026.2,000.0,038.0,030.6,30.4,-001.4,0014.73,0006.42,0004.98
2023-06-30 00:33:00,SystemResetWarning,0829.7,5.00,000.00,029.4,026.5,000.0,038.0,030.7,30.9,-001.1,0014.63,0006.39,0004.91
2023-06-30 00:34:00,SystemResetWarning,0829.7,5.00,000.00,029.4,026.8,000.0,038.0,030.8,31.1,-001.3,0014.60,0006.26,0004.85
2023-06-30 00:35:00,SystemResetWarning,0829.7,5.00,000.00,029.4,027.1,000.0,038.0,030.8,30.9,-001.6,0014.51,0006.19,0004.82
2023-06-30 00:36:00,SystemResetWarning,0829.7,4.99,000.00,029.4,027.4,000.0,038.0,030.9,31.1,-000.6,0014.31,0006.07,0004.79
2023-06-30 00:37:00,SystemResetWarning,0829.7,4.99,000.00,029.4,027.6,000.0,038.0,030.9,30.9,-000.7,0014.45,0006.02,0004.76
2023-06-30 00:38:00,SystemResetWarning,0829.7,5.02,000.00,029.4,027.7,000.0,038.0,030.9,30.3,-000.4,0014.48,0006.03,0004.76
2023-06-30 00:39:00,SystemResetWarning,0829.7,4.99,000.00,029.5,027.9,000.0,038.0,031.0,30.3,0000.1,0013.40,0005.98,0004.76
2023-06-30 00:40:00,SystemResetWarning,0829.7,4.98,000.00,029.5,028.0,000.0,038.0,031.0,30.7,0000.5,0014.07,0005.94,0004.75
2023-06-30 00:41:00,SystemResetWarning,0829.8,5.01,000.00,029.5,028.1,000.0,038.0,031.0,31.2,0000.4,0014.17,0005.95,0004.75
2023-06-30 00:42:00,SystemResetWarning,0829.8,5.01,000.00,029.5,028.1,000.0,038.0,031.1,31.4,0000.4,0014.24,0006.00,0004.75
2023-06-30 00:43:00,SystemResetWarning,0829.8,5.00,000.00,029.6,028.1,000.0,038.1,031.1,31.7,0000.7,0013.76,0005.98,0004.76
2023-06-30 00:44:00,SystemResetWarning,0829.9,4.99,000.00,029.6,026.6,000.0,037.9,030.9,31.8,0000.2,0013.56,0006.00,0004.79
2023-06-30 00:45:00,SystemResetWarning,0829.8,4.99,000.00,029.5,025.5,000.0,037.8,030.7,32.3,0000.0,0013.38,0006.06,0004.82
2023-06-30 00:46:00,SystemResetWarning,0829.8,5.01,000.00,029.4,025.4,000.0,037.8,030.4,32.7,0000.4,0013.79,0006.10,0004.83
2023-06-30 00:47:00,SystemResetWarning,0829.8,5.00,000.00,029.3,025.7,000.0,037.8,030.4,33.1,0000.3,0015.36,0006.11,0004.85
2023-06-30 00:48:00,SystemResetWarning,0829.8,4.99,000.00,029.2,026.1,000.0,037.8,030.5,33.4,0000.0,0015.35,0006.18,0004.88
2023-06-30 00:49:00,SystemResetWarning,0829.9,5.00,000.00,029.2,026.4,000.0,037.8,030.6,33.3,0000.0,0015.49,0006.27,0004.92
2023-06-30 00:50:00,SystemResetWarning,0830.0,5.00,000.00,029.2,026.7,000.0,037.8,030.6,33.4,-000.2,0015.52,0006.35,0004.95
2023-06-30 00:51:00,SystemResetWarning,0830.0,5.01,000.00,029.2,027.0,000.0,037.9,030.7,33.5,-001.0,0015.24,0006.36,0004.98
2023-06-30 00:52:00,SystemResetWarning,0830.1,4.98,000.00,029.2,027.3,000.0,037.9,030.8,33.6,-002.1,0015.80,0006.41,0005.01
2023-06-30 00:53:00,SystemResetWarning,0830.2,5.01,000.00,029.3,027.5,000.0,037.9,030.8,33.5,-002.8,0015.69,0006.42,0005.04
2023-06-30 00:54:00,SystemResetWarning,0830.3,5.01,000.00,029.3,027.6,000.0,037.9,030.8,33.8,-002.5,0015.84,0006.48,0005.07
2023-06-30 00:55:00,SystemResetWarning,0830.2,5.01,000.00,029.3,027.8,000.0,037.9,030.9,33.8,-002.5,0016.43,0006.50,0005.08
2023-06-30 00:56:00,SystemResetWarning,0830.3,4.99,000.00,029.3,027.9,000.0,037.9,030.9,33.9,-002.3,0016.24,0006.54,0005.10
2023-06-30 00:57:00,SystemResetWarning,0830.3,4.99,000.00,029.4,028.0,000.0,037.9,031.0,34.0,-002.6,0016.03,0006.58,0005.14
2023-06-30 00:58:00,SystemResetWarning,0830.3,5.00,000.00,029.4,028.1,000.0,037.9,031.0,34.0,-002.6,0014.80,0006.64,0005.19
2023-06-30 00:59:00,SystemResetWarning,0830.3,5.00,000.00,029.4,028.1,000.0,037.9,031.0,33.8,-002.2,0014.97,0006.69,0005.22
